Location: Rochester
(43.1610°N, 77.6109°W)
Time: 02:15:14
(UTC-04:00)

AO-73 - Visible Passes

Search period start: 26 October 2021 00:00
Search period end: 05 November 2021 00:00
Orbit: 580 x 662 km, 97.6° (Epoch: 24 October)

Date Brightness Start Highest point End Pass type
(mag) Time Alt. Az. Time Alt. Az. Time Alt. Az.
26 Oct ? 05:33:19 10° NNE 05:37:25 54° E 05:41:35 10° S visible
27 Oct ? 05:50:52 10° NNE 05:55:03 87° E 05:59:20 10° SSW visible
28 Oct ? 04:34:25 10° ENE 04:36:09 12° E 04:37:54 10° ESE visible
28 Oct ? 06:08:32 10° N 06:12:40 60° WNW 06:16:52 10° SSW visible
29 Oct ? 04:50:54 10° NE 04:53:56 19° E 04:57:00 10° SE visible
29 Oct ? 06:26:20 10° N 06:30:14 38° WNW 06:34:11 10° SW visible
30 Oct ? 05:07:59 10° NE 05:11:41 29° E 05:15:26 10° SSE visible
30 Oct ? 06:44:16 10° NNW 06:47:45 25° WNW 06:51:16 10° WSW visible
31 Oct ? 05:25:19 10° NNE 05:29:23 45° E 05:33:31 10° S visible
31 Oct ? 07:02:27 10° NNW 07:05:14 17° WNW 07:08:02 10° WSW visible
01 Nov ? 05:42:48 10° NNE 05:47:03 72° ESE 05:51:21 10° S visible
02 Nov ? 04:27:25 10° E 04:28:03 10° E 04:28:42 10° E visible
02 Nov ? 06:00:25 10° N 06:04:40 73° WNW 06:08:59 10° SSW visible
03 Nov ? 04:43:08 10° NE 04:45:52 16° E 04:48:36 10° SE visible
03 Nov ? 06:18:09 10° N 06:22:14 46° WNW 06:26:23 10° SW visible
04 Nov ? 05:00:04 10° NE 05:03:37 25° E 05:07:12 10° SSE visible
04 Nov ? 06:36:02 10° N 06:39:46 30° WNW 06:43:35 10° SW visible
